Tracking 19644 objects as of 24-Apr-2019
HD Live streaming from Space Station
objects crossing your sky now

CZ-4 DEB

Track CZ-4 DEB now!
10-day predictions


NORAD ID: 26432
Int'l Code: 1999-057KD
Perigee: 660.3 km
Apogee: 846.5 km
Inclination: 98.7 °
Period: 99.7 minutes
Semi major axis: 7124 km
RCS: 0.0156 m2 (small)
Launch date: October 14, 1999
Source: People's Republic of China (PRC)
Launch site: Taiyaun Space Center, China (TSC)

Note: This is SATELLITE DEBRIS
aabbcc
Your satellite tracking list
Your tracking list is empty




NASA's NSSDC Master Catalog

Two Line Element Set (TLE):
1 26432U 99057KD  19113.28867631  .00000729  00000-0  20754-3 0  9992
2 26432  98.7116 137.8199 0130630 241.3366 117.4638 14.43715878991767
Source of the keplerian elements: AFSPC